星链-33956 (STARLINK-33956)

导读

STARLINK-33956是美国SpaceX星链互联网卫星星座的一员,于2025年5月13日发射入轨,承担星链星座低轨卫星互联网组网任务。星链系统依托大量低轨卫星,可为全球偏远地区、移动场景提供高速网络接入服务,该卫星入轨进一步扩充了星链星座的服务覆盖范围与通信容量。

基本信息
目录编号:
63927
目录名称:
STARLINK-33956
国际标识:
2025-098B
轨道中心:
EARTH
卫星名称:
星链-33956
卫星全名:
星链-33956 (STARLINK-33956)
卫星状态:
在轨 (已飞行397 天)
发射日期:
2025-05-13 UTC
国别 :
美国 (US)
星等 :
--
轨道信息
数据来源 国际轨道数据
星历时间: 2026-06-14T03:21:09+0800
8小时前
查看轨道信息
半长轴: 6950.169km
偏心率: 0.0002807
轨道倾角: 70.002°
近地点辐角 266.710°
升交点赤经 31.958°
平近点角 93.373°
近地点: 570.081km
远地点: 573.983km
周期: 96.106分钟
每日圈数: 14.983378
详细信息
固有亮度:
5
最大亮度:
2.5
卫星平台:
Starlink V1.0
覆盖范围:
全球
运营商:
太空探索技术公司
运营商所在国:
美国
制造商(研发单位):
太空探索技术公司
制造商所在国:
美国
使用方式:
暂无
卫星简介
Starlink 计划是 SpaceX 推出的全球卫星互联网项目,通过发射低轨道卫星,为全球尤其是偏远地区提供高速、低延迟的互联网服务。自 2019 年起,Starlink 已部署数千颗卫星,旨在缩小全球数字鸿沟,推动互联网普及。该项目还为军事、航空等行业提供通信支持,带来广泛经济效益。
2D轨道图
3D轨道图
轨道高度分析图
轨道倾角分析图
轨道综合分析图
查看轨道综合分析图